Showing default

SZ-22 MODULE, 69328

Orbit data source: Space-Track

SZ-22 MODULE, 69328 is a payload satellite owned by ZZHGB (CN) in LEO that was launched on Tue, 25 Nov 2025 UTC launched from the Jiuquan Satellite Launch Center, China (JSC). Payload-class satellites include a variety of spacecraft equipped with specific instruments for various scientific and technological missions. These include communications satellites like Starlink; space stations such as the ISS; scientific satellites like the Hubble; Earth observation satellites from companies like Planet Labs, Umbra, and HawkEye 360; GPS; miniature CubeSats for education and research; and military/defense satellites.

Loading next visibility...
Identifier
69328, 2025-272C
Orbit
LEO
Country
Flag of CNCN / PRC
Related business
Manufacturer
CAST
Mission
Operational spacecraft
Bus & Motor
SHENZHOU OM, Unknown motor
Mass
~1,842 kg wet, ~1,500 kg dry
Launch date (UTC)
2025-11-25 (7 months ago)
Launch vehicle
Unknown
Launch site
Jiuquan Satellite Launch Center, China (JSC)
Object type
Payload
Rocket body
Debris
Shape & HBR
Unknown
Radar Cross Section
Large (>1 m²)

Expand to show TLE details & history
Last TLE update: 11 hours ago

TLE from 11 hours ago
0 SZ-22 MODULE
1 69328U 25272C   26171.44021041  .00018393  00000-0  22172-3 0  9990
2 69328  41.4804 302.3308 0006306 115.6768 244.4722 15.60329327  3836
Epoch: 2026-06-20T10:33Z
TLE epoch observation values (Epoch: 2026-06-20T10:33:54.179Z)
Latitude
-0.00006°
Longitude
-124.79981°
Altitude
388.146 km
Speed
7.678 km/s
True Right ascension
20h 09m 19s
True Declination
0° 00' 00"
Sunlit
Object was in full shadow at epoch
Visualization orbit readout
Latitude
Unknown
Longitude
Unknown
Altitude
Unknown
Speed
Unknown
Apparent Right ascension
Unknown
Apparent Declination
Unknown
Sunlit
N/A
Visualization observer readout
Local Sidereal Time
08:32:26
Azimuth
Unknown
Elevation
Unknown
Doppler factor
Unknown
Orbital elements
Apogee altitude
393.203 km
Perigee altitude
384.668 km
Semi-major axis
6,767.073 km
Eccentricity
0.00063
Inclination
41.4804°
RAAN
302.3308°
Arg. of periapsis
115.6768°
True anomaly
244.40702°
Mean anomaly
244.4722°
Eccentric anomaly
244.43961°
Mean motion
3.8989 °/min
Orbital period
92.33 mins
BSTAR
0.00022172
Loading maneuver chart data...
Computing Atmospheric mass density...
Loading historical data...
Loading historical data...
Loading historical data...
Loading historical data...
Loading historical data...
Loading historical data...
Loading historical data...
Other satellites on launch #272 in the year 2025 (2025-11-25 UTC)

Documentation

Showing up to 5 results
|